www.pogodaiklimat.ru

Погода и климат >> Архив погоды >> Австралия >> Западная Австралия >> Марди


ПОГОДА в Марди

  • Прогноз погоды в Марди
  • Монитор погоды в Марди

АРХИВ ПОГОДЫ в Марди

Время (UTC), дата Ветер
(напр.,м/с)
 
Видим.   Явления Облачность Т
(С)
Тd
(С)
f
(%)
Тe
(С)
Тes
(С)
Комфортность P
(гПа)
Po
(гПа)
Тmin
(С)
Tmax
(С)
R
(мм)
R24
(мм)
S
(см)
01 17.07 В 7 н/о н/о +23.0 -5.0 15 +21 +21 комфорт 1020.3 1018.9 +9.4
03 17.07 В 11 н/о н/о +26.0 -6.7 11 +23 +23 комфорт 1019.3 1017.9
04 17.07 В 9 н/о н/о +27.2 -8.4 9 +24 +24 комфорт 1018.6 1017.2
06 17.07 В 6 н/о н/о +28.4 -9.0 8 +25 +25 комфорт 1016.9 1015.5
07 17.07 СВ 5 н/о н/о +28.3 -10.7 7 +24 +24 комфорт 1016.4 1015.0
09 17.07 С 4 н/о н/о +24.8 +2.3 23 +24 +24 комфорт 1016.2 1014.8
10 17.07 С 2 н/о н/о +22.4 +3.0 28 +22 +22 комфорт 1016.5 1015.1
12 17.07 З 1 н/о н/о +17.2 +7.5 53 +19 +19 1017.6 1016.2
13 17.07 ЮЗ 2 н/о н/о +15.8 +7.1 56 +16 +16 1017.9 1016.5 +29.1
15 17.07 Ю 2 н/о н/о +14.2 +5.0 54 +14 +14 1018.0 1016.6
16 17.07 Ю 2 н/о н/о +12.7 +3.9 55 +12 +12 1017.8 1016.4
18 17.07 Ю 3 н/о н/о +12.4 +5.1 61 +11 +11 1017.7 1016.3
19 17.07 Ю 4 н/о н/о +11.8 +4.3 60 +10 +10 1017.5 1016.1
21 17.07 ЮВ 3 н/о н/о +10.9 +4.1 63 +9 +9 1017.4 1016.0
22 17.07 0 н/о н/о +11.2 +4.0 61 1017.6 1016.2
00 18.07 ЮВ 1 н/о н/о +15.3 -0.4 34 +16 +16 1018.3 1016.9
01 18.07 В 5 н/о н/о +21.1 -9.4 12 +20 +20 1018.5 1017.1
03 18.07 В 7 н/о н/о +27.6 -9.6 8 +24 +24 комфорт 1017.4 1016.0
04 18.07 В 7 н/о н/о +28.3 -10.7 7 +24 +24 комфорт 1016.6 1015.2
06 18.07 СВ 5 н/о н/о +29.9 -11.5 6 +26 +26 жарко 1014.6 1013.2
07 18.07 С 6 н/о н/о +28.2 -0.9 15 +26 +26 жарко 1014.3 1012.9
09 18.07 С 6 н/о н/о +25.6 +1.0 20 +24 +24 комфорт 1014.3 1012.9
10 18.07 С 3 н/о н/о +23.0 +6.7 35 +24 +24 комфорт 1014.5 1013.1
12 18.07 СВ 1 н/о н/о +18.2 +7.0 48 +19 +19 1015.6 1014.2
13 18.07 СВ 1 н/о н/о +16.6 +6.1 50 +18 +18 1015.8 1014.4
15 18.07 СВ 3 н/о н/о +14.3 +3.2 47 +14 +14 1016.3 1014.9
16 18.07 СВ 3 н/о н/о +13.9 +2.5 46 +13 +13 1016.0 1014.6
18 18.07 Ю 3 н/о н/о +13.3 +2.8 49 +13 +13 1015.5 1014.1
19 18.07 ЮВ 3 н/о н/о +11.8 +1.4 49 +11 +11 1015.2 1013.8
21 18.07 ЮВ 2 н/о н/о +12.1 +2.0 50 +12 +12 1015.0 1013.6
22 18.07 ЮВ 2 н/о н/о +12.3 +2.5 51 +12 +12 1015.3 1013.9
00 19.07 ЮВ 3 н/о н/о +17.5 +2.3 36 +18 +18 1016.0 1014.6
01 19.07 ЮВ 3 н/о н/о +22.3 +1.3 25 +22 +22 комфорт 1016.4 1015.0 +11.4
03 19.07 ЮВ 3 н/о н/о +28.0 -7.8 9 +25 +25 комфорт 1015.7 1014.3
04 19.07 СВ 3 н/о н/о +30.0 -7.8 8 +26 +26 жарко 1014.6 1013.2
06 19.07 С 4 н/о н/о +30.1 -6.2 9 +26 +26 жарко 1013.7 1012.3
07 19.07 СЗ 5 н/о н/о +28.3 +0.9 17 +26 +26 жарко 1013.9 1012.5
09 19.07 З 5 н/о н/о +26.9 +1.3 19 +25 +25 комфорт 1014.6 1013.2
10 19.07 З 4 н/о н/о +23.5 +7.6 36 +24 +24 комфорт 1014.7 1013.3
12 19.07 З 3 н/о н/о +20.8 +8.1 44 +23 +23 комфорт 1015.2 1013.8
13 19.07 З 3 н/о н/о +20.2 +9.7 51 +22 +22 комфорт 1015.9 1014.5
15 19.07 ЮЗ 2 н/о н/о +19.0 +11.1 60 +20 +20 1016.0 1014.6
16 19.07 ЮЗ 2 н/о н/о +17.8 +11.6 67 +18 +18 1015.8 1014.4
18 19.07 ЮЗ 3 н/о н/о +17.1 +7.7 54 +17 +17 1016.0 1014.6
19 19.07 ЮЗ 4 н/о н/о +17.5 +9.7 60 +17 +17 1016.0 1014.6
21 19.07 Ю 4 н/о н/о +17.5 +10.6 64 +17 +17 1016.0 1014.6
22 19.07 Ю 5 н/о н/о +17.3 +10.4 64 +17 +17 1016.4 1015.0
00 20.07 Ю 4 н/о н/о +18.4 +10.5 60 +19 +19 1017.2 1015.8
01 20.07 Ю 9 н/о н/о +21.4 +8.3 43 +23 +23 комфорт 1017.6 1016.2
03 20.07 Ю 10 н/о н/о +24.6 +8.1 35 +25 +25 комфорт 1016.9 1015.5
04 20.07 Ю 9 н/о н/о +25.4 +7.5 32 +25 +25 комфорт 1016.1 1014.7
06 20.07 Ю 9 н/о н/о +27.2 +7.6 29 +27 +27 жарко 1014.3 1012.9
07 20.07 Ю 9 н/о н/о +27.3 +7.2 28 +27 +27 жарко 1013.9 1012.5
09 20.07 Ю 8 н/о н/о +26.1 +6.7 29 +26 +26 жарко 1014.4 1013.0
10 20.07 Ю 6 н/о н/о +24.5 +6.7 32 +25 +25 комфорт 1014.6 1013.2
12 20.07 ЮЗ 4 н/о н/о +21.5 +6.2 37 +22 +22 комфорт 1015.6 1014.2
13 20.07 ЮЗ 4 н/о н/о +20.2 +5.4 38 +21 +21 комфорт 1016.1 1014.7 +28.2
15 20.07 Ю 4 н/о н/о +17.9 +5.2 43 +18 +18 1016.0 1014.6
16 20.07 Ю 4 н/о н/о +17.2 +4.5 43 +17 +17 1015.6 1014.2
18 20.07 ЮЗ 3 н/о н/о +14.5 +4.2 50 +14 +14 1015.1 1013.7
19 20.07 ЮЗ 3 н/о н/о +13.4 +3.8 52 +13 +13 1014.8 1013.4
21 20.07 ЮЗ 2 н/о н/о +11.9 +3.4 56 +11 +11 1014.9 1013.5
22 20.07 ЮЗ 3 н/о н/о +11.1 +2.9 57 +10 +10 1015.2 1013.8
00 21.07 Ю 1 н/о н/о +15.0 +4.1 48 +16 +16 1016.3 1014.9
01 21.07 ЮВ 2 н/о н/о +20.6 +3.8 33 +22 +22 комфорт 1016.8 1015.4
03 21.07 В 4 н/о н/о +25.8 +3.1 23 +25 +25 комфорт 1016.4 1015.0
04 21.07 СВ 2 н/о н/о +27.6 +3.3 21 +26 +26 жарко 1015.7 1014.3
06 21.07 СЗ 5 н/о н/о +26.4 +9.3 34 +27 +27 жарко 1014.3 1012.9
07 21.07 СЗ 5 н/о н/о +25.6 +8.6 34 +26 +26 жарко 1013.9 1012.5
09 21.07 СЗ 3 н/о н/о +23.5 +10.6 44 +25 +25 комфорт 1014.3 1012.9
10 21.07 СЗ 2 н/о н/о +21.7 +11.1 51 +24 +24 комфорт 1014.7 1013.3
12 21.07 ЮЗ 2 н/о н/о +18.9 +12.9 68 +20 +20 1016.1 1014.7
13 21.07 ЮЗ 3 н/о н/о +18.0 +12.5 70 +18 +18 1016.5 1015.1
15 21.07 Ю 1 н/о н/о +16.2 +10.7 70 +18 +18 1016.6 1015.2
16 21.07 Ю 2 н/о н/о +15.1 +9.5 69 +15 +15 1016.2 1014.8
18 21.07 штиль 0 н/о н/о +13.9 +8.1 68 +14 +14 1015.7 1014.3
19 21.07 Ю 2 н/о н/о +13.5 +8.4 71 +13 +13 1015.4 1014.0
21 21.07 Ю 2 н/о н/о +12.3 +7.0 70 +12 +12 1015.1 1013.7
22 21.07 В 2 н/о н/о +11.9 +7.2 73 +11 +11 1015.2 1013.8
00 22.07 В 3 н/о н/о +17.5 +8.6 56 +18 +18 1016.4 1015.0
01 22.07 В 4 н/о н/о +21.4 +5.7 36 +22 +22 комфорт 1016.7 1015.3 +11.7
03 22.07 В 5 н/о н/о +27.4 -6.9 10 +24 +24 комфорт 1016.7 1015.3
04 22.07 СВ 4 н/о н/о +27.9 -6.5 10 +25 +25 комфорт 1015.9 1014.5
06 22.07 С 3 н/о н/о +28.9 +0.6 16 +26 +26 жарко 1014.4 1013.0
07 22.07 С 5 н/о н/о +26.8 +3.3 22 +25 +25 комфорт 1014.2 1012.8
09 22.07 З 2 н/о н/о +24.8 +7.9 34 +25 +25 комфорт 1014.6 1013.2
10 22.07 СЗ 3 н/о н/о +23.4 +11.8 48 +26 +26 жарко 1015.7 1014.3
12 22.07 Ю 3 н/о н/о +21.0 +15.8 72 +25 +25 комфорт 1016.6 1015.2
13 22.07 ЮЗ 1 н/о {туман} н/о +19.4 +18.7 96 +23 +23 комфорт 1017.0 1015.6 +29.6
15 22.07 ЮЗ 1 н/о н/о +18.2 +18.2 100 +20 +20 1017.3 1015.9
16 22.07 Ю 3 н/о н/о +17.7 +15.9 89 +18 +18 1016.5 1015.1
18 22.07 ЮВ 2 н/о н/о +16.4 +15.1 92 +17 +17 1016.0 1014.6
19 22.07 ЮВ 2 н/о н/о +16.5 +16.3 99 +17 +17 1016.1 1014.7
21 22.07 ЮВ 3 н/о н/о +15.5 +12.8 84 +15 +15 1016.0 1014.6
22 22.07 В 3 н/о н/о +15.0 +12.5 85 +14 +14 1016.3 1014.9
00 23.07 ЮВ 3 н/о н/о +18.3 +7.4 49 +19 +19 1018.1 1016.7
01 23.07 ЮВ 3 н/о н/о +19.8 +2.2 31 +20 +20 1018.9 1017.5 +14.7
03 23.07 ЮВ 6 н/о н/о +23.0 -2.6 18 +22 +22 комфорт 1018.8 1017.4
04 23.07 В 7 н/о н/о +24.1 -4.1 15 +22 +22 комфорт 1017.6 1016.2
06 23.07 В 7 н/о н/о +26.8 -4.9 12 +24 +24 комфорт 1015.2 1013.8
07 23.07 В 3 н/о н/о +26.4 -4.2 13 +24 +24 комфорт 1015.3 1013.9
09 23.07 С 1 н/о н/о +22.6 +7.6 38 +24 +24 комфорт 1017.3 1015.9
10 23.07 З 4 н/о н/о +21.7 +11.1 51 +24 +24 комфорт 1018.6 1017.2
12 23.07 ЮЗ 3 н/о н/о +19.0 +12.3 65 +20 +20 1019.6 1018.2
13 23.07 Ю 3 н/о {туман} н/о +18.4 +9.5 56 +19 +19 1019.8 1018.4 +27.6
15 23.07 ЮВ 1 н/о н/о +17.0 +13.9 82 +18 +18 1019.9 1018.5
16 23.07 Ю 2 н/о {туман} н/о +16.6 +16.4 99 +17 +17 1019.9 1018.5
18 23.07 ЮВ 7 н/о н/о +16.6 +14.4 87 +15 +15 1018.4 1017.0
19 23.07 ЮВ 4 н/о в посл. час дождь {туман} н/о +16.7 +12.8 78 +16 +16 1018.3 1016.9
22 23.07 ЮВ 3 н/о туман местами н/о +16.6 +13.9 84 +16 +16 1019.2 1017.8

 

Местоположение метеостанции Марди (Западная Австралия, Австралия): широта -21.18 долгота 115.97 высота над уровнем моря 12 м.

В архиве по умолчанию представлена погода в Марди за последнюю неделю. Архивные данные за месяц целиком и за предыдущие месяцы, начиная с января 2011 года, Вы можете получить, выбрав интересующий диапазон дат из раскрывающегося списка и нажав кнопку "Ввод!".


*Определитесь, кто Вы:
робот инопланетянин человек

Внимание! Время в таблицах - всемирное. Для получения местного времени необходимо прибавить поправку, которая равна 8 ч.

Смотрите также архив погоды в соседних городах и на ближайших метеорологических станциях:

Погода в Барроу-Айленд (Западная Австралия, Австралия) (68 км)
Погода на Острове Варанас (Западная Австралия, Австралия) (72 км)
Погода в Каррате (Западная Австралия, Австралия) (98 км)
Погода на Острове Тевенард (Западная Австралия, Австралия) (103 км)
Погода в Онслоу (Западная Австралия, Австралия) (104 км)
Погода в Роборн аэропорту (Западная Австралия, Австралия) (132 км)
Погода в Лермонте (Западная Австралия, Австралия) (228 км)
Погода в Параберду (Западная Австралия, Австралия) (287 км)
Погода в Порт-Хедленде Apardoo (Западная Австралия, Австралия) (291 км)
Погода в Марбл-баре (Западная Австралия, Австралия) (392 км)

Пояснения к столбцам:

Ветер - указаны скорость ветра в м/с - средняя за 10 мин, порывы в срок и между сроками (в фигурных скобках) и направление, откуда дует ветер: С - северный, СВ - северо-восточный, В - восточный, ЮВ - юго-восточный, Ю - южный, ЮЗ - юго-западный, З - западный, СЗ - северо-западный.
Видимость - горизонтальная дальность видимости в метрах или километрах. При видимости от 1 до 10 км при отсутствии осадков обычно наблюдается дымка, при ухудшении видимости до 1 км и менее - туман. В сухую погоду видимость может ухудшаться дымом, пылью или мглою.
Явления - указаны атмосферные явления, наблюдавшиеся в срок или в последний час перед сроком; фигурными скобками обозначены явления, наблюдавшиеся между сроками (за 1-3 часа до срока); квадратными скобками обозначены град или гололедные отложения с указанием их диаметра в мм.
Облачность - указаны через наклонную черту общая и нижняя облачность в баллах и высота нижней границы облаков в метрах; квадратными скобками обозначены формы облаков: Ci - перистые, Cs - перисто-слоистые, Cc - перисто-кучевые, Ac - высококучевые, As - высокослоистые, Sc - слоисто-кучевые, Ns - слоисто-дождевые, Cu - кучевые, Cb - кучево-дождевые. Подробнее классификацию облаков см. в Атласе облаков (PDF).
T - Температура воздуха - температура, измеренная на высоте 2 м над землей.
Td - Температура точки росы - температура, при понижении до которой содержащийся в воздухе водяной пар достигнет насыщения.
f - Относительная влажность воздуха - влажноcть воздуха, измеренная на высоте 2 м над землей.
Te - Эффективная температура - температура, которую ощущает одетый по сезону человек в тени. Характеристика душности погоды. При расчете учитывается влияние влажности воздуха и скорости ветра на теплоощущения человека.
Tes - Эффективная температура на солнце - температура, которую ощущает человек, с поправкой на солнечный нагрев. Характеристика знойности погоды. Зависит от высоты солнца над горизонтом, облачности и скорости ветра. Ночью, в пасмурную погоду, а также при ветре 12 м/с и более поправка равна нулю.
P - Атмосферное давление - приведенное к уровню моря атмосферное давление.
Po - Атмосферное давление - измеренное на уровне метеостанции атмосферное давление.
Tmin - Минимальная температура - минимум температуры воздуха на высоте 2 м над землей.
Tmax - Максимальная температура - максимум температуры воздуха на высоте 2 м над землей.
R - Количество осадков - Количество выпавших осадков за период времени, мм. При наведении курсора мыши на число - период времени, за который выпало указанное количество осадков.
R24 - Количество осадков - Количество выпавших осадков за 24 часа, мм.
S - Снежный покров - Высота снежного покрова, см. При наведении курсора мыши на число - состояние снежного покрова и степень покрытия местности в баллах.